ITY807 LEIB-LIRF

Flight info

Callsign ITY807
Flight time 1h 28m
Altitude 38000
Route MHN N851 ISTER UN851 LUNOR DCT PELOS DCT VALMA
Aircraft A320/M-SDE3FGHIRWY/LB1

Departure

Time 2026-05-07 15:38
Airport Ibiza Airport (LEIB)

Arrival

Time 2026-05-07 17:07
Airport Rome–Fiumicino Leonardo da Vinci International Airport (LIRF)
Time Latitude Longitude Altitude Speed Heading
2026-05-07 14:58 38.87566 1.36915 9 ft 0 kts 333°
2026-05-07 14:59 38.87566 1.36916 9 ft 0 kts 333°
2026-05-07 15:15 38.87565 1.36916 36 ft 0 kts 333°
2026-05-07 15:22 38.87556 1.36922 12 ft 2 kts 333°
2026-05-07 15:23 38.87544 1.36930 12 ft 2 kts 333°
2026-05-07 15:23 38.87532 1.36939 10 ft 2 kts 333°
2026-05-07 15:23 38.87519 1.36947 10 ft 2 kts 333°
2026-05-07 15:23 38.87507 1.36955 9 ft 2 kts 333°
2026-05-07 15:24 38.87495 1.36963 10 ft 2 kts 333°
2026-05-07 15:24 38.87482 1.36971 10 ft 2 kts 333°
2026-05-07 15:24 38.87470 1.36979 11 ft 2 kts 333°
2026-05-07 15:24 38.87458 1.36987 10 ft 2 kts 333°
2026-05-07 15:25 38.87445 1.36996 11 ft 2 kts 333°
2026-05-07 15:25 38.87433 1.37004 10 ft 2 kts 333°
2026-05-07 15:25 38.87432 1.37005 10 ft 0 kts 333°
2026-05-07 15:28 38.87454 1.36986 9 ft 11 kts 317°
2026-05-07 15:29 38.87477 1.36905 8 ft 9 kts 265°
2026-05-07 15:29 38.87453 1.36838 8 ft 8 kts 243°
2026-05-07 15:29 38.87422 1.36795 8 ft 6 kts 191°
2026-05-07 15:29 38.87389 1.36808 8 ft 4 kts 155°
2026-05-07 15:30 38.87366 1.36822 10 ft 3 kts 153°
2026-05-07 15:30 38.87353 1.36831 8 ft 2 kts 153°
2026-05-07 15:30 38.87294 1.36857 9 ft 11 kts 188°
2026-05-07 15:30 38.87254 1.36788 9 ft 9 kts 242°
2026-05-07 15:31 38.87226 1.36720 9 ft 8 kts 242°
2026-05-07 15:31 38.87197 1.36649 8 ft 12 kts 243°
2026-05-07 15:31 38.87150 1.36531 8 ft 18 kts 242°
2026-05-07 15:31 38.87097 1.36402 8 ft 16 kts 242°
2026-05-07 15:32 38.87046 1.36282 9 ft 15 kts 242°
2026-05-07 15:32 38.87001 1.36174 8 ft 13 kts 243°
2026-05-07 15:32 38.86961 1.36074 9 ft 12 kts 242°
2026-05-07 15:32 38.86923 1.35984 8 ft 11 kts 242°
2026-05-07 15:33 38.86890 1.35903 8 ft 10 kts 243°
2026-05-07 15:33 38.86861 1.35832 8 ft 8 kts 237°
2026-05-07 15:33 38.86815 1.35823 9 ft 7 kts 154°
2026-05-07 15:33 38.86811 1.35826 8 ft 0 kts 152°
2026-05-07 15:35 38.86810 1.35827 8 ft 0 kts 152°
2026-05-07 15:35 38.86809 1.35828 8 ft 0 kts 152°
2026-05-07 15:36 38.86796 1.35837 8 ft 9 kts 152°
2026-05-07 15:36 38.86729 1.35889 6 ft 10 kts 141°
2026-05-07 15:37 38.86717 1.35903 6 ft 5 kts 136°
2026-05-07 15:37 38.86719 1.35948 6 ft 0 kts 54°
2026-05-07 15:37 38.86721 1.35952 6 ft 0 kts 59°
2026-05-07 15:37 38.86731 1.35974 6 ft 16 kts 60°
2026-05-07 15:38 38.86909 1.36403 5 ft 89 kts 62°
2026-05-07 15:38 38.87287 1.37318 11 ft 141 kts 62°
2026-05-07 15:38 38.87813 1.38539 313 ft 163 kts 63°
2026-05-07 15:38 38.88311 1.39851 981 ft 165 kts 72°
2026-05-07 15:39 38.88572 1.41333 1409 ft 182 kts 79°
2026-05-07 15:39 38.88849 1.43020 1725 ft 204 kts 77°
2026-05-07 15:39 38.89164 1.44814 2471 ft 207 kts 77°
2026-05-07 15:39 38.89486 1.46623 3284 ft 209 kts 77°
2026-05-07 15:40 38.89814 1.48455 4047 ft 211 kts 77°
2026-05-07 15:40 38.90145 1.50307 4792 ft 215 kts 77°
2026-05-07 15:40 38.90482 1.52194 5529 ft 219 kts 77°
2026-05-07 15:40 38.90777 1.54121 6301 ft 222 kts 86°
2026-05-07 15:41 38.90698 1.56167 6728 ft 241 kts 96°
2026-05-07 15:41 38.90488 1.58408 7101 ft 262 kts 97°
2026-05-07 15:41 38.90304 1.60779 7805 ft 272 kts 89°
2026-05-07 15:41 38.90618 1.63193 8670 ft 277 kts 78°
2026-05-07 15:42 38.91058 1.65612 9586 ft 280 kts 78°
2026-05-07 15:42 38.91514 1.68073 10273 ft 290 kts 78°
2026-05-07 15:42 38.92000 1.70697 10631 ft 314 kts 77°
2026-05-07 15:42 38.92521 1.73501 11103 ft 328 kts 78°
2026-05-07 15:43 38.93056 1.76378 11748 ft 334 kts 78°
2026-05-07 15:43 38.93597 1.79296 12477 ft 338 kts 78°
2026-05-07 15:43 38.94144 1.82256 13232 ft 342 kts 78°
2026-05-07 15:43 38.94694 1.85249 13922 ft 347 kts 78°
2026-05-07 15:44 38.95246 1.88281 14541 ft 351 kts 79°
2026-05-07 15:44 38.95805 1.91350 15144 ft 355 kts 79°
2026-05-07 15:44 38.96369 1.94455 15748 ft 359 kts 79°
2026-05-07 15:44 38.96941 1.97607 16347 ft 364 kts 79°
2026-05-07 15:45 38.97520 2.00789 16940 ft 368 kts 79°
2026-05-07 15:45 38.98100 2.03971 17521 ft 373 kts 79°
2026-05-07 15:45 38.98694 2.07231 18107 ft 377 kts 79°
2026-05-07 15:45 38.99296 2.10535 18616 ft 381 kts 79°
2026-05-07 15:46 39.00511 2.17268 19600 ft 391 kts 79°
2026-05-07 15:46 39.01124 2.20693 20087 ft 395 kts 79°
2026-05-07 15:46 39.01747 2.24154 20583 ft 400 kts 79°
2026-05-07 15:47 39.02379 2.27660 21068 ft 405 kts 79°
2026-05-07 15:47 39.03016 2.31205 21499 ft 411 kts 79°
2026-05-07 15:47 39.03661 2.34822 21923 ft 417 kts 79°
2026-05-07 15:47 39.04310 2.38477 22389 ft 422 kts 79°
2026-05-07 15:48 39.04967 2.42177 22857 ft 427 kts 79°
2026-05-07 15:48 39.05633 2.45926 23311 ft 432 kts 79°
2026-05-07 15:48 39.06306 2.49707 23715 ft 436 kts 79°
2026-05-07 15:48 39.06983 2.53521 24109 ft 439 kts 79°
2026-05-07 15:49 39.07666 2.57373 24514 ft 442 kts 80°
2026-05-07 15:49 39.08349 2.61238 24907 ft 444 kts 80°
2026-05-07 15:49 39.09034 2.65127 25296 ft 447 kts 80°
2026-05-07 15:49 39.09721 2.69035 25692 ft 448 kts 80°
2026-05-07 15:50 39.10409 2.72968 26064 ft 451 kts 81°
2026-05-07 15:50 39.11099 2.76920 26420 ft 454 kts 81°
2026-05-07 15:50 39.11790 2.80895 26774 ft 456 kts 81°
2026-05-07 15:50 39.12482 2.84891 27127 ft 459 kts 81°
2026-05-07 15:51 39.13179 2.88911 27470 ft 461 kts 81°
2026-05-07 15:51 39.14015 2.92929 27806 ft 467 kts 74°
2026-05-07 15:51 39.15320 2.96792 28137 ft 474 kts 64°
2026-05-07 15:51 39.17103 3.00395 28465 ft 480 kts 55°
2026-05-07 15:52 39.19123 3.03843 28777 ft 483 kts 55°
2026-05-07 15:52 39.21121 3.07267 29044 ft 486 kts 55°
2026-05-07 15:52 39.23151 3.10767 29331 ft 488 kts 55°
2026-05-07 15:52 39.25189 3.14289 29624 ft 491 kts 56°
2026-05-07 15:53 39.27238 3.17830 29914 ft 493 kts 56°
2026-05-07 15:53 39.29295 3.21386 30158 ft 496 kts 56°
2026-05-07 15:53 39.31361 3.24961 30402 ft 498 kts 56°
2026-05-07 15:53 39.33443 3.28563 30614 ft 500 kts 56°
2026-05-07 15:54 39.35532 3.32182 30830 ft 502 kts 56°
2026-05-07 15:54 39.37620 3.35811 31044 ft 504 kts 56°
2026-05-07 15:54 39.39717 3.39460 31266 ft 506 kts 56°
2026-05-07 15:54 39.41813 3.43107 31563 ft 506 kts 56°
2026-05-07 15:55 39.43910 3.46758 31862 ft 505 kts 56°
2026-05-07 15:55 39.46004 3.50412 32149 ft 505 kts 56°
2026-05-07 15:55 39.48101 3.54072 32434 ft 506 kts 56°
2026-05-07 15:55 39.50192 3.57726 32717 ft 506 kts 56°
2026-05-07 15:56 39.52285 3.61383 33002 ft 506 kts 56°
2026-05-07 15:56 39.54380 3.65048 33278 ft 506 kts 56°
2026-05-07 15:56 39.56452 3.68683 33555 ft 506 kts 56°
2026-05-07 15:56 39.58542 3.72357 33841 ft 507 kts 56°
2026-05-07 15:57 39.60634 3.76035 34098 ft 507 kts 56°
2026-05-07 15:57 39.62728 3.79719 34346 ft 507 kts 56°
2026-05-07 15:57 39.64823 3.83408 34556 ft 507 kts 55°
2026-05-07 15:57 39.66911 3.87096 34770 ft 508 kts 55°
2026-05-07 15:58 39.69003 3.90793 34993 ft 508 kts 55°
2026-05-07 15:58 39.71098 3.94494 35217 ft 508 kts 55°
2026-05-07 15:58 39.73189 3.98195 35433 ft 508 kts 55°
2026-05-07 15:58 39.75276 4.01892 35672 ft 507 kts 55°
2026-05-07 15:59 39.77360 4.05592 35904 ft 507 kts 55°
2026-05-07 15:59 39.79439 4.09292 36106 ft 507 kts 55°
2026-05-07 15:59 39.81521 4.12996 36319 ft 507 kts 55°
2026-05-07 15:59 39.83598 4.16692 36512 ft 506 kts 55°
2026-05-07 16:00 39.85681 4.20405 36683 ft 506 kts 56°
2026-05-07 16:00 39.87530 4.24209 36909 ft 503 kts 62°
2026-05-07 16:00 39.89286 4.28142 37103 ft 503 kts 62°
2026-05-07 16:00 39.91049 4.32078 37279 ft 503 kts 62°
2026-05-07 16:01 39.92814 4.36013 37454 ft 503 kts 62°
2026-05-07 16:01 39.94576 4.39947 37630 ft 502 kts 62°
2026-05-07 16:01 39.96336 4.43879 37856 ft 502 kts 62°
2026-05-07 16:02 39.99845 4.51741 37949 ft 501 kts 62°
2026-05-07 16:02 40.03339 4.59606 37925 ft 502 kts 62°
2026-05-07 16:03 40.06843 4.67518 37952 ft 504 kts 62°
2026-05-07 16:03 40.10358 4.75445 37935 ft 504 kts 62°
2026-05-07 16:04 40.13873 4.83376 37948 ft 504 kts 62°
2026-05-07 16:04 40.17384 4.91315 37970 ft 504 kts 62°
2026-05-07 16:05 40.20864 4.99225 37943 ft 504 kts 62°
2026-05-07 16:05 40.24356 5.07203 37950 ft 505 kts 62°
2026-05-07 16:06 40.27848 5.15192 37951 ft 506 kts 62°
2026-05-07 16:06 40.31340 5.23197 37958 ft 506 kts 62°
2026-05-07 16:07 40.34830 5.31212 37963 ft 506 kts 62°
2026-05-07 16:07 40.38276 5.39273 37955 ft 506 kts 66°
2026-05-07 16:08 40.40893 5.47807 37953 ft 504 kts 71°
2026-05-07 16:08 40.43430 5.56392 37958 ft 505 kts 71°
2026-05-07 16:09 40.45973 5.64994 37960 ft 505 kts 71°
2026-05-07 16:09 40.48501 5.73606 37943 ft 506 kts 71°
2026-05-07 16:10 40.51023 5.82242 37953 ft 506 kts 71°
2026-05-07 16:10 40.53530 5.90881 37961 ft 506 kts 71°
2026-05-07 16:11 40.56034 5.99530 37965 ft 506 kts 71°
2026-05-07 16:11 40.58536 6.08183 37970 ft 506 kts 71°
2026-05-07 16:12 40.61038 6.16853 37954 ft 506 kts 71°
2026-05-07 16:12 40.63522 6.25472 37959 ft 507 kts 71°
2026-05-07 16:13 40.66007 6.34160 37963 ft 507 kts 71°
2026-05-07 16:13 40.68480 6.42851 37966 ft 507 kts 71°
2026-05-07 16:14 40.70958 6.51549 37955 ft 507 kts 71°
2026-05-07 16:14 40.73426 6.60249 37983 ft 506 kts 72°
2026-05-07 16:15 40.75886 6.68954 37976 ft 506 kts 72°
2026-05-07 16:15 40.78337 6.77660 37973 ft 506 kts 72°
2026-05-07 16:16 40.80783 6.86369 37948 ft 506 kts 72°
2026-05-07 16:16 40.83222 6.95084 37959 ft 506 kts 72°
2026-05-07 16:17 40.85657 7.03810 37967 ft 506 kts 72°
2026-05-07 16:17 40.88079 7.12538 37970 ft 506 kts 72°
2026-05-07 16:18 40.90494 7.21276 37968 ft 506 kts 72°
2026-05-07 16:18 40.92897 7.30013 37982 ft 506 kts 72°
2026-05-07 16:19 40.95298 7.38757 37978 ft 505 kts 72°
2026-05-07 16:19 40.97677 7.47430 37974 ft 505 kts 72°
2026-05-07 16:20 41.00064 7.56176 37975 ft 505 kts 72°
2026-05-07 16:20 41.02440 7.64932 37941 ft 505 kts 72°
2026-05-07 16:21 41.04430 7.72283 37935 ft 507 kts 72°
2026-05-07 16:21 41.06806 7.81086 37941 ft 508 kts 72°
2026-05-07 16:22 41.09166 7.89845 37981 ft 508 kts 72°
2026-05-07 16:22 41.11546 7.98684 37942 ft 509 kts 72°
2026-05-07 16:23 41.13913 8.07536 37940 ft 510 kts 72°
2026-05-07 16:23 41.16180 8.16451 37947 ft 508 kts 79°
2026-05-07 16:24 41.17547 8.25621 37949 ft 507 kts 83°
2026-05-07 16:24 41.18846 8.34824 37929 ft 507 kts 83°
2026-05-07 16:25 41.20140 8.44041 37931 ft 508 kts 83°
2026-05-07 16:25 41.21426 8.53279 37938 ft 509 kts 83°
2026-05-07 16:26 41.22704 8.62539 37952 ft 509 kts 83°
2026-05-07 16:26 41.23982 8.71817 37956 ft 510 kts 83°
2026-05-07 16:27 41.25248 8.81044 37945 ft 510 kts 83°
2026-05-07 16:27 41.26510 8.90337 37950 ft 511 kts 83°
2026-05-07 16:28 41.27767 8.99633 37958 ft 511 kts 83°
2026-05-07 16:28 41.29013 9.08937 37961 ft 511 kts 83°
2026-05-07 16:29 41.30251 9.18270 37931 ft 513 kts 83°
2026-05-07 16:29 41.31492 9.27622 37942 ft 514 kts 83°
2026-05-07 16:30 41.32735 9.37002 37951 ft 515 kts 83°
2026-05-07 16:30 41.33957 9.46405 37931 ft 516 kts 84°
2026-05-07 16:31 41.35179 9.55828 37935 ft 518 kts 84°
2026-05-07 16:31 41.36405 9.65299 37942 ft 520 kts 84°
2026-05-07 16:32 41.37629 9.74797 37999 ft 520 kts 84°
2026-05-07 16:32 41.38833 9.84291 37969 ft 520 kts 84°
2026-05-07 16:33 41.40021 9.93793 37949 ft 521 kts 84°
2026-05-07 16:33 41.41212 10.03283 37939 ft 524 kts 84°
2026-05-07 16:33 41.41818 10.08118 37516 ft 532 kts 84°
2026-05-07 16:34 41.42425 10.12997 36664 ft 534 kts 84°
2026-05-07 16:34 41.43032 10.17888 35787 ft 536 kts 83°
2026-05-07 16:34 41.43637 10.22749 35288 ft 528 kts 83°
2026-05-07 16:34 41.44237 10.27582 34439 ft 530 kts 83°
2026-05-07 16:35 41.44834 10.32419 33621 ft 528 kts 83°
2026-05-07 16:35 41.45426 10.37245 32928 ft 524 kts 83°
2026-05-07 16:35 41.46005 10.42006 32228 ft 520 kts 83°
2026-05-07 16:35 41.46576 10.46726 31743 ft 512 kts 83°
2026-05-07 16:36 41.47142 10.51410 30983 ft 511 kts 83°
2026-05-07 16:36 41.47701 10.56042 30580 ft 502 kts 83°
2026-05-07 16:36 41.48251 10.60621 29978 ft 498 kts 83°
2026-05-07 16:36 41.48793 10.65169 29339 ft 494 kts 83°
2026-05-07 16:37 41.49326 10.69668 28752 ft 489 kts 83°
2026-05-07 16:37 41.49857 10.74137 28142 ft 486 kts 82°
2026-05-07 16:37 41.50386 10.78569 27590 ft 481 kts 82°
2026-05-07 16:37 41.50905 10.82946 27062 ft 476 kts 82°
2026-05-07 16:38 41.51410 10.87222 26552 ft 471 kts 82°
2026-05-07 16:38 41.51916 10.91519 26050 ft 466 kts 81°
2026-05-07 16:38 41.52412 10.95767 25558 ft 461 kts 81°
2026-05-07 16:38 41.52899 10.99964 25077 ft 456 kts 81°
2026-05-07 16:39 41.53380 11.04126 24602 ft 451 kts 81°
2026-05-07 16:39 41.53856 11.08240 24144 ft 447 kts 81°
2026-05-07 16:39 41.54328 11.12323 23693 ft 443 kts 80°
2026-05-07 16:39 41.54795 11.16364 23205 ft 438 kts 80°
2026-05-07 16:40 41.55257 11.20371 22705 ft 434 kts 81°
2026-05-07 16:40 41.55709 11.24335 22222 ft 430 kts 81°
2026-05-07 16:40 41.56155 11.28265 21753 ft 426 kts 81°
2026-05-07 16:40 41.56592 11.32161 21289 ft 422 kts 81°
2026-05-07 16:41 41.57023 11.36010 20905 ft 416 kts 82°
2026-05-07 16:41 41.57452 11.39809 20467 ft 412 kts 81°
2026-05-07 16:41 41.58114 11.43507 20057 ft 407 kts 70°
2026-05-07 16:41 41.59102 11.46982 19914 ft 394 kts 69°
2026-05-07 16:42 41.60067 11.50379 19618 ft 388 kts 69°
2026-05-07 16:42 41.61011 11.53735 19236 ft 384 kts 69°
2026-05-07 16:42 41.61944 11.57067 18846 ft 381 kts 69°
2026-05-07 16:42 41.62867 11.60377 18455 ft 379 kts 70°
2026-05-07 16:43 41.63787 11.63670 18021 ft 377 kts 70°
2026-05-07 16:43 41.64702 11.66938 17614 ft 374 kts 70°
2026-05-07 16:43 41.65609 11.70178 17213 ft 370 kts 70°
2026-05-07 16:43 41.66509 11.73386 16835 ft 367 kts 70°
2026-05-07 16:44 41.67398 11.76573 16452 ft 363 kts 70°
2026-05-07 16:44 41.68278 11.79724 16083 ft 360 kts 70°
2026-05-07 16:44 41.69151 11.82849 15728 ft 357 kts 70°
2026-05-07 16:44 41.70012 11.85932 15526 ft 349 kts 70°
2026-05-07 16:45 41.70841 11.88908 15341 ft 342 kts 70°
2026-05-07 16:45 41.71659 11.91864 14938 ft 335 kts 70°
2026-05-07 16:45 41.72478 11.94835 14584 ft 334 kts 70°
2026-05-07 16:45 41.73289 11.97739 14323 ft 330 kts 67°
2026-05-07 16:46 41.74542 12.00223 14215 ft 319 kts 40°
2026-05-07 16:46 41.76429 12.01601 14100 ft 304 kts 11°
2026-05-07 16:46 41.78481 12.01682 13759 ft 293 kts 343°
2026-05-07 16:46 41.80424 12.00899 13422 ft 291 kts 339°
2026-05-07 16:47 41.82349 12.00078 13100 ft 290 kts 339°
2026-05-07 16:47 41.84264 11.99263 12783 ft 288 kts 340°
2026-05-07 16:47 41.86173 11.98451 12461 ft 287 kts 340°
2026-05-07 16:47 41.88065 11.97648 12090 ft 285 kts 340°
2026-05-07 16:48 41.89920 11.96860 11889 ft 280 kts 340°
2026-05-07 16:48 41.91772 11.96076 11822 ft 279 kts 340°
2026-05-07 16:48 41.93620 11.95298 11743 ft 278 kts 340°
2026-05-07 16:48 41.95468 11.94521 11657 ft 278 kts 340°
2026-05-07 16:49 41.97314 11.93741 11569 ft 278 kts 340°
2026-05-07 16:49 41.99155 11.92959 11485 ft 277 kts 340°
2026-05-07 16:49 42.00995 11.92176 11391 ft 277 kts 340°
2026-05-07 16:49 42.02834 11.91393 11301 ft 277 kts 340°
2026-05-07 16:50 42.04668 11.90611 11215 ft 276 kts 340°
2026-05-07 16:50 42.06498 11.89829 11123 ft 276 kts 340°
2026-05-07 16:50 42.08314 11.89055 10999 ft 269 kts 340°
2026-05-07 16:50 42.10084 11.88302 10815 ft 263 kts 340°
2026-05-07 16:51 42.11825 11.87560 10752 ft 263 kts 340°
2026-05-07 16:51 42.13570 11.86814 10679 ft 262 kts 340°
2026-05-07 16:51 42.15308 11.86072 10620 ft 262 kts 340°
2026-05-07 16:51 42.17048 11.85329 10558 ft 262 kts 340°
2026-05-07 16:52 42.18786 11.84585 10462 ft 262 kts 340°
2026-05-07 16:52 42.20522 11.83842 10378 ft 262 kts 340°
2026-05-07 16:52 42.22254 11.83100 10292 ft 261 kts 340°
2026-05-07 16:52 42.23986 11.82355 10214 ft 261 kts 340°
2026-05-07 16:53 42.25713 11.81613 10125 ft 260 kts 340°
2026-05-07 16:53 42.27438 11.80870 10033 ft 260 kts 340°
2026-05-07 16:53 42.29169 11.80160 9935 ft 261 kts 347°
2026-05-07 16:53 42.30966 11.80268 9844 ft 263 kts 18°
2026-05-07 16:54 42.32483 11.81614 9744 ft 264 kts 50°
2026-05-07 16:54 42.33317 11.83798 9650 ft 264 kts 73°
2026-05-07 16:54 42.33867 11.86138 9553 ft 265 kts 73°
2026-05-07 16:54 42.34425 11.88538 9454 ft 264 kts 73°
2026-05-07 16:55 42.34877 11.90914 9346 ft 255 kts 89°
2026-05-07 16:55 42.34525 11.93172 9262 ft 245 kts 122°
2026-05-07 16:55 42.33380 11.94746 9196 ft 228 kts 155°
2026-05-07 16:55 42.31961 11.95447 9146 ft 217 kts 165°
2026-05-07 16:56 42.30509 11.96062 9092 ft 215 kts 165°
2026-05-07 16:56 42.29083 11.96671 9032 ft 215 kts 165°
2026-05-07 16:56 42.26224 11.97886 8622 ft 221 kts 165°
2026-05-07 16:57 42.24717 11.98525 8023 ft 234 kts 165°
2026-05-07 16:57 42.23121 11.99200 7400 ft 247 kts 165°
2026-05-07 16:57 42.21459 11.99903 6794 ft 251 kts 164°
2026-05-07 16:57 42.19805 12.00608 6282 ft 248 kts 163°
2026-05-07 16:58 42.18190 12.01297 5835 ft 246 kts 163°
2026-05-07 16:58 42.16545 12.01999 5475 ft 242 kts 163°
2026-05-07 16:58 42.15001 12.02656 5190 ft 230 kts 162°
2026-05-07 16:58 42.13508 12.03293 5066 ft 217 kts 162°
2026-05-07 16:59 42.12104 12.03998 4727 ft 216 kts 150°
2026-05-07 16:59 42.10964 12.05283 4401 ft 212 kts 130°
2026-05-07 16:59 42.09990 12.06726 4145 ft 204 kts 131°
2026-05-07 16:59 42.09046 12.08108 3895 ft 198 kts 131°
2026-05-07 17:00 42.08124 12.09451 3649 ft 191 kts 131°
2026-05-07 17:00 42.07239 12.10740 3419 ft 183 kts 131°
2026-05-07 17:00 42.06402 12.11961 3198 ft 171 kts 131°
2026-05-07 17:00 42.05623 12.13096 3048 ft 158 kts 131°
2026-05-07 17:01 42.04890 12.14166 3011 ft 154 kts 130°
2026-05-07 17:01 42.04165 12.15224 2983 ft 152 kts 131°
2026-05-07 17:01 42.03455 12.16264 2981 ft 150 kts 129°
2026-05-07 17:01 42.02758 12.17285 2950 ft 150 kts 129°
2026-05-07 17:02 42.02037 12.18320 2906 ft 150 kts 136°
2026-05-07 17:02 42.01160 12.19032 2692 ft 151 kts 157°
2026-05-07 17:02 42.00182 12.19530 2606 ft 150 kts 159°
2026-05-07 17:02 41.99189 12.19988 2537 ft 152 kts 162°
2026-05-07 17:03 41.98194 12.20424 2507 ft 152 kts 162°
2026-05-07 17:03 41.97179 12.20859 2469 ft 154 kts 163°
2026-05-07 17:03 41.96156 12.21293 2323 ft 155 kts 163°
2026-05-07 17:03 41.95146 12.21719 2145 ft 150 kts 162°
2026-05-07 17:04 41.94155 12.22136 1974 ft 149 kts 162°
2026-05-07 17:04 41.93168 12.22551 1772 ft 149 kts 163°
2026-05-07 17:04 41.92183 12.22965 1577 ft 149 kts 163°
2026-05-07 17:04 41.91531 12.23239 1441 ft 148 kts 163°
2026-05-07 17:05 41.90552 12.23650 1251 ft 147 kts 165°
2026-05-07 17:05 41.89581 12.24058 1055 ft 145 kts 165°
2026-05-07 17:05 41.88624 12.24460 865 ft 144 kts 165°
2026-05-07 17:05 41.87657 12.24865 679 ft 147 kts 166°
2026-05-07 17:06 41.86693 12.25269 496 ft 143 kts 165°
2026-05-07 17:06 41.85743 12.25667 306 ft 145 kts 166°
2026-05-07 17:06 41.84780 12.26074 126 ft 145 kts 165°
2026-05-07 17:06 41.83832 12.26490 19 ft 133 kts 169°
2026-05-07 17:07 41.83224 12.26719 11 ft 50 kts 163°
2026-05-07 17:07 41.83068 12.26807 12 ft 15 kts 167°
2026-05-07 17:07 41.82943 12.26840 12 ft 21 kts 169°
2026-05-07 17:07 41.82780 12.26870 13 ft 23 kts 180°
2026-05-07 17:08 41.82650 12.26856 11 ft 21 kts 186°
2026-05-07 17:08 41.82515 12.26816 11 ft 11 kts 194°
2026-05-07 17:08 41.82419 12.26786 11 ft 18 kts 188°
2026-05-07 17:08 41.82276 12.26798 12 ft 24 kts 164°
2026-05-07 17:09 41.82097 12.26875 13 ft 30 kts 162°
2026-05-07 17:09 41.81909 12.26951 11 ft 22 kts 162°
2026-05-07 17:09 41.81769 12.27012 12 ft 19 kts 162°
2026-05-07 17:09 41.81624 12.27070 12 ft 25 kts 162°
2026-05-07 17:10 41.81463 12.27139 12 ft 24 kts 162°
2026-05-07 17:10 41.81283 12.27211 12 ft 28 kts 162°